COSMOS 2251 DEB, 33983

Orbit data source: Space-Track

COSMOS 2251 DEB, 33983 is space debris in LEO originally from a launch on Wed, 16 Jun 1993 UTC launched from the Plesetsk Missile And Space Complex (PKMTR). The debris from Iridium 33, an American commercial communications satellite, has been tracked extensively since its accidental collision with the defunct Russian satellite Cosmos 2251 in 2009. This event, occurring at high speed in low Earth orbit (LEO), generated thousands of pieces of space debris, significantly increasing the risk of further collisions. The Iridium 33 debris cloud has impacted space traffic management and orbital debris mitigation strategies, making it a subject of ongoing study in space situational awareness.

Loading next visibility...
Identifier
33983, 1993-036FS
Orbit
LEO
Country
Flag of CISCIS
Related business
Manufacturer
Unknown
Mission
Spacecraft
Bus & Motor
Unknown
Mass
Unknown
Launch date (UTC)
1993-06-16 (33 years ago)
Launch vehicle
Unknown
Launch site
Plesetsk Missile And Space Complex (PKMTR)
Object type
Payload
Rocket body
Debris
Shape & HBR
Unknown shape, 0.2 m
Radar Cross Section
Small (<0.1 m²)

Expand to show TLE details & history
Last TLE update: 10 hours ago

TLE from 10 hours ago
0 COSMOS 2251 DEB
1 33983U 93036FS  26121.35528432  .00001630  00000-0  41590-3 0  9993
2 33983  74.0497 244.6790 0021078 310.9079  79.7743 14.51239207906543
Epoch: 2026-05-01T08:31Z
TLE epoch observation values (Epoch: 2026-05-01T08:31:36.565Z)
Latitude
29.66472°
Longitude
-93.194°
Altitude
722.379 km
Speed
7.498 km/s
True Right ascension
16h 55m 59s
True Declination
29° 30' 59"
Sunlit
Object was in full shadow at epoch
Visualization orbit readout
Latitude
Unknown
Longitude
Unknown
Altitude
Unknown
Speed
Unknown
Apparent Right ascension
Unknown
Apparent Declination
Unknown
Sunlit
N/A
Visualization observer readout
Local Sidereal Time
02:24:52
Azimuth
Unknown
Elevation
Unknown
Doppler factor
Unknown
Orbital elements
Apogee altitude
734.17 km
Perigee altitude
704.25 km
Semi-major axis
7,097.347 km
Eccentricity
0.00211
Inclination
74.0497°
RAAN
244.679°
Arg. of periapsis
310.9079°
True anomaly
80.01211°
Mean anomaly
79.7743°
Eccentric anomaly
79.89319°
Mean motion
3.62994 °/min
Orbital period
99.18 mins
BSTAR
0.0004159
Loading maneuver chart data...
Computing Atmospheric mass density...

Documentation

Showing up to 5 results
|